When you browse on this site, cookies collect data to enhance your experience and personalize the content and advertising you see.
Visit our Privacy Policy to learn more. By continuing to use the site, you agree to this use of cookies and data.
  • In United Kingdom
  • List of Countries
  • For 7 days
  • Water Temperature
  • Weather Map
  • Weather Widgets
  • user-avatar
    Login

    Hourly Weather Sylhet

    Today, 20 September, Friday

    Time Temperature Precipitation Wind Pressure Humidity
    00:00 +28°C° 0 mm 0 mps 756 mmHg 73%
    01:00 +27°C° 0 mm 0 mps 756 mmHg 74%
    02:00 +27°C° 0 mm 0 mps 755 mmHg 76%
    03:00 +27°C° 0 mm 0 mps 755 mmHg 77%
    04:00 +26°C° 0 mm 0 mps 755 mmHg 79%
    05:00 +26°C° 0 mm 0 mps 755 mmHg 81%
    06:00 +26°C° 0 mm 0 mps 756 mmHg 87%
    07:00 +28°C° 0 mm 0 mps 756 mmHg 81%
    08:00 +30°C° 0 mm 0 mps 756 mmHg 74%
    09:00 +33°C° 0 mm 1 mps 756 mmHg 68%
    10:00 +34°C° 0 mm 1 mps 756 mmHg 63%
    11:00 +36°C° 0 mm 1 mps 755 mmHg 58%
    12:00 +37°C° 0 mm 1 mps 756 mmHg 53%
    13:00 +35°C° 0 mm 0 mps 755 mmHg 51%
    14:00 +35°C° 0 mm 0 mps 754 mmHg 49%
    15:00 +35°C° 0 mm 0 mps 753 mmHg 47%
    16:00 +36°C° 0 mm 1 mps 753 mmHg 52%
    17:00 +34°C° 0 mm 1 mps 753 mmHg 58%
    18:00 +33°C° 0 mm 1 mps 753 mmHg 63%
    19:00 +32°C° 0 mm 1 mps 754 mmHg 66%
    20:00 +31°C° 0 mm 1 mps 754 mmHg 69%
    21:00 +31°C° 0 mm 1 mps 755 mmHg 73%
    22:00 +30°C° 0 mm 1 mps 755 mmHg 74%
    23:00 +30°C° 0 mm 1 mps 755 mmHg 76%

    Tomorrow, 21 September, Saturday

    Time Temperature Precipitation Wind Pressure Humidity
    00:00 +29°C° 0 mm 1 mps 755 mmHg 78%
    01:00 +29°C° 0 mm 1 mps 755 mmHg 80%
    02:00 +29°C° 0 mm 1 mps 754 mmHg 81%
    03:00 +28°C° 0 mm 1 mps 754 mmHg 83%
    04:00 +28°C° 0 mm 1 mps 754 mmHg 84%
    05:00 +28°C° 0 mm 1 mps 754 mmHg 86%
    06:00 +27°C° 0 mm 1 mps 755 mmHg 87%
    07:00 +29°C° 0 mm 1 mps 755 mmHg 81%
    08:00 +31°C° 0 mm 1 mps 755 mmHg 75%
    09:00 +33°C° 0 mm 1 mps 755 mmHg 69%
    10:00 +34°C° 0 mm 1 mps 755 mmHg 63%
    11:00 +36°C° 0 mm 1 mps 754 mmHg 58%
    12:00 +35°C° 0 mm 0 mps 754 mmHg 53%
    13:00 +35°C° 0 mm 0 mps 753 mmHg 51%
    14:00 +35°C° 0 mm 0 mps 752 mmHg 49%
    15:00 +35°C° 0 mm 0 mps 751 mmHg 47%
    16:00 +36°C° 0 mm 1 mps 752 mmHg 52%
    17:00 +34°C° 0 mm 1 mps 752 mmHg 57%
    18:00 +33°C° 0 mm 1 mps 752 mmHg 62%
    19:00 +32°C° 0 mm 1 mps 753 mmHg 65%
    20:00 +32°C° 0 mm 1 mps 754 mmHg 68%
    21:00 +31°C° 0 mm 1 mps 755 mmHg 71%
    22:00 +31°C° 0 mm 1 mps 755 mmHg 73%
    23:00 +30°C° 0 mm 1 mps 755 mmHg 74%

    Day after tomorrow, 22 September, Sunday

    Time Temperature Precipitation Wind Pressure Humidity
    00:00 +30°C° 0 mm 1 mps 755 mmHg 76%
    01:00 +30°C° 0 mm 1 mps 754 mmHg 77%
    02:00 +29°C° 0 mm 1 mps 754 mmHg 78%
    03:00 +29°C° 0 mm 1 mps 754 mmHg 80%
    04:00 +29°C° 0 mm 1 mps 754 mmHg 81%
    05:00 +28°C° 0 mm 1 mps 755 mmHg 83%
    06:00 +28°C° 0 mm 2 mps 755 mmHg 85%
    07:00 +29°C° 0.3 mm 2 mps 756 mmHg 82%
    08:00 +30°C° 0.3 mm 2 mps 756 mmHg 78%
    09:00 +33°C° 0.3 mm 3 mps 756 mmHg 75%
    10:00 +34°C° 0.9 mm 3 mps 756 mmHg 71%
    11:00 +35°C° 0.9 mm 2 mps 756 mmHg 67%
    12:00 +35°C° 0.9 mm 2 mps 756 mmHg 64%
    13:00 +35°C° 0.3 mm 2 mps 755 mmHg 64%
    14:00 +36°C° 0.3 mm 3 mps 755 mmHg 64%
    15:00 +36°C° 0.3 mm 3 mps 754 mmHg 63%
    16:00 +34°C° 1.2 mm 3 mps 754 mmHg 71%
    17:00 +31°C° 1.2 mm 2 mps 754 mmHg 78%
    18:00 +30°C° 1.2 mm 2 mps 755 mmHg 86%
    19:00 +29°C° 0.5 mm 2 mps 755 mmHg 87%
    20:00 +29°C° 0.5 mm 2 mps 756 mmHg 88%
    21:00 +29°C° 0.5 mm 1 mps 757 mmHg 89%
    22:00 +28°C° 0.9 mm 1 mps 757 mmHg 89%
    23:00 +28°C° 0.9 mm 1 mps 757 mmHg 88%

    23 September, Monday

    Time Temperature Precipitation Wind Pressure Humidity
    00:00 +28°C° 0.9 mm 1 mps 757 mmHg 88%
    01:00 +28°C° 0.2 mm 1 mps 756 mmHg 89%
    02:00 +27°C° 0.2 mm 1 mps 756 mmHg 90%
    03:00 +27°C° 0.2 mm 1 mps 756 mmHg 91%
    04:00 +27°C° 0.7 mm 1 mps 756 mmHg 91%
    05:00 +27°C° 0.7 mm 1 mps 757 mmHg 92%
    06:00 +27°C° 0.7 mm 1 mps 757 mmHg 92%
    07:00 +28°C° 1.4 mm 1 mps 757 mmHg 87%
    08:00 +29°C° 1.4 mm 2 mps 758 mmHg 82%
    09:00 +31°C° 1.4 mm 2 mps 758 mmHg 77%
    10:00 +31°C° 2.2 mm 2 mps 758 mmHg 74%
    11:00 +32°C° 2.2 mm 2 mps 757 mmHg 71%
    12:00 +34°C° 2.2 mm 2 mps 757 mmHg 68%
    13:00 +32°C° 2.3 mm 2 mps 757 mmHg 70%
    14:00 +32°C° 2.3 mm 2 mps 756 mmHg 73%
    15:00 +32°C° 2.3 mm 2 mps 755 mmHg 76%
    16:00 +30°C° 1.9 mm 2 mps 756 mmHg 79%
    17:00 +29°C° 1.9 mm 2 mps 756 mmHg 83%
    18:00 +28°C° 1.9 mm 2 mps 756 mmHg 87%
    19:00 +28°C° 0.5 mm 2 mps 757 mmHg 88%
    20:00 +28°C° 0.5 mm 2 mps 757 mmHg 89%
    21:00 +27°C° 0.5 mm 2 mps 757 mmHg 91%
    22:00 +27°C° 0.8 mm 2 mps 757 mmHg 91%
    23:00 +27°C° 0.8 mm 2 mps 758 mmHg 92%

    24 September, Tuesday

    Time Temperature Precipitation Wind Pressure Humidity
    00:00 +26°C° 0.8 mm 2 mps 758 mmHg 93%
    01:00 +26°C° 0.6 mm 2 mps 757 mmHg 94%
    02:00 +26°C° 0.6 mm 2 mps 757 mmHg 94%
    03:00 +26°C° 0.6 mm 2 mps 757 mmHg 95%
    04:00 +26°C° 0.1 mm 2 mps 757 mmHg 95%
    05:00 +26°C° 0.1 mm 2 mps 757 mmHg 96%
    06:00 +26°C° 0.1 mm 2 mps 757 mmHg 96%
    07:00 +26°C° 0.1 mm 2 mps 758 mmHg 94%
    08:00 +27°C° 0.1 mm 2 mps 758 mmHg 92%
    09:00 +28°C° 0.1 mm 3 mps 759 mmHg 90%
    10:00 +28°C° 1.2 mm 2 mps 758 mmHg 88%
    11:00 +29°C° 1.2 mm 2 mps 758 mmHg 85%
    12:00 +29°C° 1.2 mm 2 mps 758 mmHg 83%
    13:00 +28°C° 0.9 mm 2 mps 757 mmHg 86%
    14:00 +28°C° 0.9 mm 2 mps 757 mmHg 89%
    15:00 +27°C° 0.9 mm 2 mps 757 mmHg 92%
    16:00 +26°C° 0.6 mm 2 mps 757 mmHg 93%
    17:00 +26°C° 0.6 mm 3 mps 757 mmHg 94%
    18:00 +25°C° 0.6 mm 3 mps 757 mmHg 95%
    19:00 +25°C° 0.2 mm 3 mps 758 mmHg 95%
    20:00 +25°C° 0.2 mm 3 mps 759 mmHg 95%
    21:00 +25°C° 0.2 mm 3 mps 759 mmHg 95%
    22:00 +25°C° 0.6 mm 3 mps 759 mmHg 95%
    23:00 +25°C° 0.6 mm 3 mps 759 mmHg 96%

    25 September, Wednesday

    Time Temperature Precipitation Wind Pressure Humidity
    00:00 +25°C° 0.6 mm 3 mps 759 mmHg 96%
    01:00 +25°C° 0.5 mm 3 mps 759 mmHg 96%
    02:00 +25°C° 0.5 mm 3 mps 758 mmHg 97%
    03:00 +25°C° 0.5 mm 3 mps 758 mmHg 97%
    04:00 +25°C° 1.3 mm 3 mps 758 mmHg 97%
    05:00 +25°C° 1.3 mm 3 mps 759 mmHg 97%
    06:00 +25°C° 1.3 mm 2 mps 759 mmHg 97%
    07:00 +25°C° 1.7 mm 2 mps 759 mmHg 96%
    08:00 +25°C° 1.7 mm 2 mps 760 mmHg 96%
    09:00 +26°C° 1.7 mm 2 mps 761 mmHg 95%
    10:00 +26°C° 1.8 mm 2 mps 761 mmHg 95%
    11:00 +25°C° 1.8 mm 1 mps 760 mmHg 95%
    12:00 +25°C° 1.8 mm 1 mps 760 mmHg 96%
    13:00 +26°C° 0.4 mm 1 mps 760 mmHg 94%
    14:00 +26°C° 0.4 mm 1 mps 759 mmHg 92%
    15:00 +26°C° 0.4 mm 1 mps 759 mmHg 91%
    16:00 +26°C° 0.1 mm 1 mps 759 mmHg 92%
    17:00 +26°C° 0.1 mm 1 mps 759 mmHg 94%
    18:00 +25°C° 0.1 mm 1 mps 759 mmHg 96%
    19:00 +25°C° 0 mm 1 mps 760 mmHg 96%
    20:00 +25°C° 0 mm 1 mps 761 mmHg 96%
    21:00 +25°C° 0 mm 1 mps 761 mmHg 97%
    22:00 +24°C° 0 mm 1 mps 761 mmHg 97%
    23:00 +24°C° 0 mm 1 mps 761 mmHg 96%
    Show more